[[{"header":{"parameterUnit":"m.s-1","parameterCategory":1,"la1":30.2992,"la2":30.254,"lo1":-89.0895,"lo2":-89.0443,"dy":0.0025,"dx":0.0025,"nx":19,"ny":19,"refTime":"2026-04-23T21:00:00:Z","depth":0,"parameterNumber":2,"parameterNumberName":"U-component_of_WINDS"},"data":[0,0,0,-2.2887,-2.2888,-2.291,-2.291,-2.2933,-2.2933,0,0,0,0,0,0,0,0,0,0,0,-2.2879,-2.2879,-2.2887,-2.2888,-2.291,-2.291,-2.2933,-2.2933,0,0,0,0,0,0,0,0,0,0,0,-2.2879,-2.2879,-2.2879,-2.2888,-2.291,-2.291,-2.2933,-2.2918,0,0,0,0,0,0,0,0,0,0,-2.2897,-2.2887,-2.2879,-2.2879,-2.2888,-2.291,-2.291,-2.2917,-2.2918,-2.2921,0,-2.2923,0,-2.2928,-2.2934,-2.2934,0,0,0,-2.2889,-2.2886,-2.2894,-2.2879,-2.2888,-2.291,-2.29,-2.2918,-2.292,-2.2923,-2.2923,-2.2924,-2.2929,-2.2934,-2.2934,-2.2945,-2.2945,0,0,-2.2888,-2.2881,-2.2893,-2.2895,-2.2893,-2.2899,-2.2901,-2.2919,-2.2919,-2.2924,-2.2925,-2.2929,-2.2934,-2.2934,-2.2945,-2.2945,0,0,0,-2.2883,-2.288,-2.2888,-2.2894,-2.2898,-2.29,-2.2902,-2.2918,-2.2921,-2.2925,-2.2929,-2.2934,-2.2935,-2.2945,-2.2945,-2.2938,0,0,0,-2.2883,-2.2878,-2.2887,-2.2883,-2.2898,-2.2909,-2.29,-2.292,-2.2922,-2.2929,-2.2934,-2.2935,-2.2945,-2.2945,-2.2939,-2.2936,0,0,0,-2.2878,-2.2877,-2.288,-2.2883,-2.2892,-2.2909,-2.2913,-2.2921,-2.2925,-2.2934,-2.2935,-2.2945,-2.2945,-2.2939,-2.2937,-2.2937,0,0,0,-2.287,-2.2873,-2.288,-2.2884,-2.2892,-2.2905,-2.2913,-2.2922,-2.293,-2.2935,-2.2945,-2.2945,-2.2939,-2.2937,-2.2937,-2.2936,-2.2935,0,0,-2.287,-2.2873,-2.2876,-2.2882,-2.2892,-2.2902,-2.291,-2.2923,-2.2929,-2.2939,-2.2939,-2.2939,-2.2937,-2.2937,-2.2933,-2.2932,0,0,0,-2.2873,-2.2876,-2.288,-2.2887,-2.2897,-2.2906,-2.2918,-2.2922,-2.2931,-2.2933,-2.2939,-2.2938,-2.2939,-2.2939,-2.2938,-2.2939,-2.2945,-2.2945,-2.2945,-2.2863,-2.2872,-2.2878,-2.2889,-2.2896,-2.2909,-2.2915,-2.2923,-2.2929,-2.293,-2.2933,-2.293,-2.2929,-2.2929,-2.2929,-2.2934,-2.2934,-2.2934,-2.2934,-2.2863,-2.2867,-2.2876,-2.2885,-2.2894,-2.2901,-2.2913,-2.2917,-2.2925,-2.2928,-2.2929,-2.2932,-2.2928,-2.2929,-2.2933,-2.2933,-2.2933,-2.2933,-2.2933,-2.2857,-2.286,-2.2867,-2.2878,-2.2886,-2.2897,-2.2904,-2.2912,-2.2919,-2.292,-2.2923,-2.2923,-2.2924,-2.2921,-2.2921,-2.2921,-2.2921,-2.2921,-2.2921,-2.2848,-2.2855,-2.2861,-2.2872,-2.2878,-2.2886,-2.2899,-2.2904,-2.2912,-2.2917,-2.2917,-2.2923,-2.2926,-2.2926,-2.2921,-2.2921,-2.2921,-2.2921,-2.2921,-2.2844,-2.2846,-2.2855,-2.286,-2.2874,-2.2881,-2.2891,-2.2901,-2.2907,-2.291,-2.2916,-2.2917,-2.292,-2.292,-2.2921,-2.2914,-2.2914,-2.2914,-2.2914,-2.2839,-2.2841,-2.2852,-2.286,-2.287,-2.288,-2.2888,-2.2897,-2.2907,-2.2911,-2.2913,-2.2914,-2.2915,-2.2918,-2.2918,-2.2919,-2.2912,-2.2912,-2.2912,-2.2837,-2.2841,-2.2847,-2.2858,-2.2869,-2.2878,-2.2886,-2.2894,-2.2906,-2.2912,-2.2914,-2.2914,-2.2916,-2.2917,-2.2922,-2.2923,-2.2924,0,0]},{"header":{"parameterUnit":"m.s-1","parameterCategory":1,"la1":30.2992,"la2":30.254,"lo1":-89.0895,"lo2":-89.0443,"dy":0.0025,"dx":0.0025,"nx":19,"ny":19,"refTime":"2026-04-23T21:00:00:Z","depth":0,"parameterNumber":3,"parameterNumberName":"V-component_of_WINDS"},"data":[0,0,0,4.0186,4.0189,4.0286,4.0286,4.0412,4.0413,0,0,0,0,0,0,0,0,0,0,0,4.0161,4.0162,4.0186,4.0189,4.0286,4.0286,4.0412,4.0413,0,0,0,0,0,0,0,0,0,0,0,4.0161,4.0162,4.0163,4.0189,4.0286,4.0286,4.0412,4.0337,0,0,0,0,0,0,0,0,0,0,4.0242,4.0223,4.0161,4.0163,4.019,4.0286,4.0287,4.0333,4.0342,4.0369,0,4.0397,0,4.0408,4.0422,4.0422,0,0,0,4.0185,4.0216,4.0239,4.0163,4.0191,4.0286,4.0241,4.0338,4.0347,4.038,4.0399,4.0404,4.041,4.0423,4.0423,4.0601,4.0602,0,0,4.018,4.018,4.0233,4.0246,4.0234,4.0238,4.0244,4.0344,4.0363,4.04,4.0406,4.0412,4.0424,4.0425,4.06,4.0601,0,0,0,4.0167,4.0176,4.0197,4.0241,4.0258,4.0241,4.0248,4.0358,4.0365,4.0408,4.0413,4.0424,4.0426,4.0599,4.06,4.0649,0,0,0,4.0164,4.0168,4.0195,4.0195,4.0257,4.031,4.0261,4.0359,4.037,4.0413,4.0425,4.0427,4.0598,4.0599,4.0646,4.0672,0,0,0,4.0153,4.0167,4.0183,4.0195,4.0237,4.0308,4.0321,4.0361,4.0373,4.0423,4.0428,4.0597,4.0599,4.0642,4.0666,4.0718,0,0,0,4.0142,4.0223,4.0183,4.0277,4.0237,4.0339,4.0321,4.0396,4.0444,4.0425,4.0598,4.06,4.0641,4.0663,4.0715,4.0762,4.0781,0,0,4.0244,4.0236,4.0291,4.0258,4.0368,4.0324,4.044,4.0483,4.0487,4.0562,4.0566,4.0647,4.0666,4.0718,4.0894,4.0909,0,0,0,4.0323,4.0362,4.0392,4.0439,4.0476,4.0509,4.0535,4.0551,4.0615,4.0527,4.068,4.0691,4.0721,4.0744,4.0757,4.0783,4.0611,4.061,4.061,4.0466,4.0469,4.056,4.0575,4.0621,4.0648,4.0684,4.071,4.0697,4.0733,4.0755,4.0862,4.0888,4.0898,4.0925,4.0781,4.0781,4.0781,4.0781,4.0617,4.0673,4.0656,4.0739,4.074,4.0808,4.0837,4.0826,4.0888,4.0846,4.0872,4.0825,4.0916,4.0939,4.0785,4.0784,4.0784,4.0784,4.0783,4.071,4.0738,4.0758,4.0827,4.0879,4.089,4.0952,4.095,4.0949,4.0976,4.0998,4.0997,4.0996,4.0987,4.0987,4.0988,4.0988,4.0988,4.0988,4.0799,4.082,4.0874,4.0921,4.0951,4.0991,4.1019,4.1048,4.1079,4.1073,4.1073,4.1056,4.0925,4.0891,4.0994,4.0993,4.0992,4.0992,4.0991,4.0949,4.0916,4.0998,4.1029,4.1083,4.1135,4.1134,4.1193,4.1216,4.1246,4.1225,4.1128,4.1118,4.1107,4.1079,4.1225,4.1225,4.1225,4.1225,4.1028,4.1024,4.1108,4.1157,4.1205,4.1212,4.1302,4.1325,4.1342,4.1357,4.1336,4.1299,4.1288,4.1284,4.127,4.1244,4.1428,4.1428,4.1428,4.112,4.112,4.1199,4.1218,4.1261,4.1297,4.1382,4.1437,4.1449,4.1436,4.1368,4.1359,4.13,4.1281,4.1264,4.1242,4.1194,0,0]}]]